Location: Asheville, NC
(35.6000°N, 82.5500°W)
Time: 09:23:58
(UTC-04:00)

DOVE 4 - Pass Details

Date: 13 March 2018
Orbit: 590 x 802 km, 97.7° (Epoch: 24 June)

Event Time Altitude Azimuth Distance (km) Brightness Sun altitude
Rises 05:15:13 0° 25° (NNE) 3,290 ? -30.5°
Reaches altitude 10° 05:17:56 10° 37° (NE) 2,336 ? -30.0°
Maximum altitude 05:22:17 27° 94° (E) 1,433 ? -29.2°
Drops below altitude 10° 05:26:26 10° 152° (SSE) 2,229 ? -28.4°
Sets 05:28:57 0° 164° (SSE) 3,110 ? -27.9°
